Theta_e
306 306 306 305 305 305 305 306 307 309 310 311 313 311 311 313 313 312 308 313 305 299 302 305 307 307 308 310 305 308 305 307 307 301 300 301 308 308 306 309 308 306 305 306 307 304 302 323 321 313 325 330 329 329
305 306 306 306 305 305 305 305 307 308 310 311 313 312 312 313 313 312 305 313 311 301 302 309 310 311 312 312 313 312 311 312 311 305 302 303 304 311 311 303 314 306 312 309 315 313 326 326 327 330 332 330 330 329
305 305 306 306 305 305 305 305 306 308 309 311 312 312 313 314 313 311 309 311 308 302 304 307 311 315 320 320 321 312 318 317 314 317 309 308 308 314 308 309 312 319 323 317 319 322 324 327 329 330 330 329 329 329
305 305 306 306 305 306 306 305 306 309 310 311 311 313 313 313 312 313 310 313 309 305 301 304 316 312 320 323 324 323 321 322 318 317 308 304 305 318 314 313 313 317 321 319 320 322 323 325 327 329 328 328 326 326
305 305 305 305 305 306 306 306 306 308 310 312 311 313 313 313 312 313 312 314 315 307 299 303 307 310 316 323 322 323 322 318 313 309 305 302 312 315 319 320 315 320 320 315 315 324 322 324 328 328 325 323 323 322
306 305 305 305 305 305 306 306 306 308 310 312 311 313 313 312 312 313 305 315 318 316 304 300 312 312 320 322 320 320 320 316 314 312 309 311 317 319 314 314 321 325 328 330 323 328 327 328 328 326 323 322 322 322
305 305 305 305 305 305 305 305 306 309 310 311 311 313 312 311 313 307 304 311 312 315 303 302 303 312 315 318 317 315 317 316 314 312 310 313 318 317 316 313 322 324 325 328 329 328 324 324 321 323 322 322 320 323
305 305 305 305 305 305 305 305 305 308 309 312 311 312 311 310 309 305 310 310 313 311 309 303 304 310 317 311 310 318 312 314 313 311 312 313 315 318 313 321 323 324 325 326 327 328 325 324 323 322 322 321 320 320
305 305 305 305 305 305 305 305 306 308 310 311 311 311 310 310 307 310 315 312 316 311 302 305 300 304 314 311 313 313 313 308 316 309 309 311 310 310 316 321 320 321 323 322 325 324 323 320 320 320 319 320 319 320
305 305 305 304 305 305 305 304 306 308 310 311 309 304 302 310 313 313 310 306 308 310 309 305 309 304 311 310 308 309 313 307 304 309 314 309 308 314 319 323 323 322 324 324 320 318 319 318 318 319 318 320 320 320
304 304 304 305 305 305 305 304 306 308 310 311 303 300 311 312 309 306 300 301 304 300 307 307 307 304 314 307 309 311 307 308 301 307 306 304 302 312 316 322 324 324 324 324 325 324 323 322 320 319 319 319 320 320
304 304 304 304 305 305 305 304 307 307 309 307 308 311 312 307 303 297 297 302 302 298 304 304 307 309 310 315 311 309 305 307 300 314 306 302 309 320 318 319 324 326 325 324 325 322 322 322 321 319 318 318 319 320
303 304 304 304 304 305 304 304 307 307 307 311 305 302 301 301 291 293 291 297 298 304 306 305 304 309 311 313 311 308 302 302 313 305 302 306 316 318 321 321 324 326 325 324 323 323 323 321 319 318 317 318 319 319
302 303 304 304 304 304 304 305 307 308 305 298 296 289 295 294 296 297 299 300 305 306 306 306 307 306 310 306 306 300 305 307 301 298 301 311 317 317 321 323 323 322 324 324 322 322 320 319 318 319 319 320 319 319
302 303 303 303 304 304 303 305 305 308 302 296 296 289 293 300 301 302 306 304 308 308 306 306 306 306 308 304 305 303 300 298 301 303 310 316 322 321 322 323 323 323 324 323 323 321 319 319 319 319 321 322 321 320
301 302 303 304 305 304 303 305 305 304 299 296 295 293 298 297 299 302 303 302 308 309 308 306 302 300 301 303 300 299 297 297 305 311 316 320 323 324 324 325 325 325 324 324 322 320 319 319 320 321 323 322 321 320
301 300 304 304 305 304 303 305 301 299 297 293 291 299 299 299 301 303 304 304 310 306 301 301 297 299 306 300 299 304 300 308 308 314 318 323 324 325 325 325 324 324 324 323 322 321 321 322 323 322 321 322 322 321
299 304 304 304 304 303 305 305 300 296 292 295 294 299 300 302 303 304 307 308 308 305 304 300 306 301 299 297 301 306 309 313 316 316 319 323 325 327 326 325 324 324 323 322 322 322 322 322 321 321 322 321 320 318
302 304 304 304 303 301 297 299 302 293 295 298 300 301 302 303 305 307 308 308 310 310 307 305 300 300 301 309 308 308 310 312 311 317 321 324 327 328 328 326 325 323 322 322 323 321 322 324 321 321 320 319 316 317
303 302 303 303 302 298 293 297 303 296 294 297 299 299 301 302 305 306 306 305 305 305 302 300 301 304 306 310 311 311 313 314 314 312 318 322 326 326 328 325 323 324 322 323 323 314 322 321 321 321 320 317 316 315
301 302 303 303 301 300 299 298 295 296 296 296 299 298 297 300 300 302 303 307 306 304 301 304 306 309 313 313 314 315 315 315 314 314 318 319 322 323 324 325 326 322 321 320 319 318 314 319 320 320 317 316 316 315
301 302 300 301 297 297 296 299 297 301 296 296 297 298 297 296 297 298 303 301 301 303 306 307 309 311 312 313 314 315 318 319 319 320 310 312 319 318 319 322 322 320 320 320 320 319 320 320 319 318 316 315 312 315
301 301 299 297 292 292 290 299 293 295 292 294 297 294 295 297 299 303 296 299 301 307 309 310 312 315 314 316 317 318 320 319 317 322 320 320 317 317 318 321 321 319 319 319 321 319 317 308 312 316 316 314 314 313
302 297 293 292 292 289 295 293 295 293 294 294 293 291 294 297 302 298 295 297 302 307 309 312 313 312 314 316 314 314 317 319 318 321 322 319 316 316 317 318 318 319 319 319 317 315 317 316 308 314 314 313 313 313
288 289 291 287 294 289 289 289 291 290 289 292 291 292 294 299 294 295 296 299 303 305 308 312 313 313 311 312 313 315 326 321 318 321 321 322 319 316 316 318 318 319 318 317 316 315 315 315 314 314 312 313 312 312
285 291 288 289 289 288 289 288 289 290 291 290 292 296 296 295 293 293 298 302 304 307 309 311 311 310 312 314 315 318 320 324 324 319 321 323 321 319 316 315 315 317 319 317 313 311 312 311 311 311 310 309 297 310
285 288 293 297 294 292 291 293 294 292 291 290 293 294 294 290 291 297 303 307 307 312 315 315 316 314 313 318 321 322 324 325 324 323 323 324 324 324 322 317 315 317 318 316 318 317 314 312 310 311 311 312 312 312
290 291 288 290 290 291 288 289 289 290 293 297 296 292 291 293 298 304 306 311 312 316 318 319 319 319 318 320 320 320 320 322 324 323 322 323 324 325 324 323 323 301 319 320 319 318 317 314 313 313 312 312 312 313
288 290 289 288 289 290 291 291 291 296 300 299 296 295 297 307 313 313 314 315 319 317 317 316 317 319 320 322 322 320 319 321 319 315 314 315 316 319 323 322 320 320 319 319 290 304 315 314 314 314 314 314 315 314
291 291 289 290 289 290 296 297 297 304 305 304 305 307 308 309 312 318 313 315 315 314 314 314 314 317 319 320 319 320 322 321 320 316 313 314 316 321 322 322 322 321 321 319 317 308 292 307 305 315 314 315 315 314
298 294 292 293 291 296 301 305 308 310 308 309 310 306 306 306 309 313 314 316 316 314 314 315 317 318 317 314 315 314 314 319 320 319 320 320 321 321 322 322 321 321 320 318 317 315 314 314 313 312 312 312 312 310
299 297 295 293 293 299 302 300 300 299 300 302 301 306 305 303 300 307 312 315 314 315 304 311 316 316 317 317 319 319 302 318 317 317 317 318 319 321 321 321 321 320 318 319 318 316 313 315 316 315 316 312 311 310
298 299 299 298 298 298 300 300 298 297 298 299 301 302 303 303 301 307 315 315 313 313 314 315 317 318 319 318 317 317 310 318 301 288 290 289 289 300 316 320 320 321 320 319 319 318 317 316 316 314 311 310 309 308
Wind_Speed
11 11 10 12 12 12 13 14 14 15 13 12 10 7 8 8 9 7 1 5 3 4 13 21 17 17 14 13 14 11 10 11 8 9 4 4 11 9 14 19 23 16 15 13 15 14 7 9 12 8 10 12 14 15
11 11 10 12 12 12 12 13 14 14 12 12 9 8 10 10 11 11 2 3 4 5 10 17 22 22 26 20 13 7 11 6 1 3 4 3 8 9 8 17 22 17 16 9 5 3 13 14 11 12 14 16 15 16
12 11 11 11 12 12 12 12 13 15 13 11 7 4 6 10 12 13 3 2 3 4 9 6 8 6 10 18 18 6 3 3 4 3 1 3 11 13 13 11 13 2 8 6 8 14 11 14 14 13 14 15 16 16
11 12 11 11 11 11 12 12 13 14 12 8 7 7 7 5 6 9 4 2 3 5 5 4 8 12 9 13 17 14 10 2 3 2 3 4 7 14 9 6 13 8 10 10 16 16 13 12 14 16 17 17 18 17
11 12 12 11 11 11 12 12 13 14 12 9 8 8 10 9 9 7 6 6 8 5 5 6 6 13 12 12 12 10 5 5 3 2 2 10 10 14 11 18 13 8 14 9 9 19 5 18 17 19 19 19 18 18
11 11 12 11 12 11 12 11 13 13 13 5 8 9 9 4 4 5 3 5 9 5 5 4 3 5 8 8 9 7 5 4 4 4 4 8 25 9 7 5 13 8 7 7 15 21 18 21 19 19 19 18 18 18
11 11 11 11 12 11 12 12 13 13 13 7 7 9 10 8 4 5 2 2 5 7 4 6 4 5 8 5 3 2 4 2 2 2 4 6 11 6 9 6 11 8 6 19 20 24 22 21 20 19 19 19 17 17
12 11 11 11 11 11 11 11 14 13 12 7 7 8 9 8 9 6 6 12 9 7 7 6 3 8 11 5 3 2 1 2 4 3 2 11 5 8 3 10 14 11 17 19 21 17 21 22 21 20 19 18 18 17
12 11 10 9 11 11 10 10 12 12 11 5 7 6 4 7 9 2 9 7 6 7 6 7 7 2 7 6 4 2 2 4 7 7 8 6 5 3 15 14 13 15 15 13 16 22 22 22 22 20 20 19 18 17
11 10 10 9 10 10 9 9 11 11 7 7 4 3 4 4 1 5 6 3 5 6 7 9 9 2 6 6 8 6 7 9 5 8 10 11 4 2 4 7 10 10 15 14 21 19 21 21 20 20 19 16 16 16
11 10 9 9 9 8 8 8 10 10 5 4 4 4 4 6 5 2 4 6 7 6 6 6 10 7 2 3 2 3 5 3 5 4 4 5 2 6 6 8 11 11 14 15 14 17 18 19 19 18 18 17 16 16
11 10 9 8 8 8 7 7 8 4 2 5 4 3 4 2 3 4 5 6 7 5 5 7 6 8 3 2 2 4 5 4 4 1 4 3 8 14 14 12 14 12 16 16 15 18 18 19 18 17 16 16 15 15
10 9 9 8 8 8 7 7 8 8 8 2 3 2 3 2 4 7 8 6 5 6 5 6 6 4 4 3 3 3 5 4 1 4 4 2 7 8 7 10 14 13 16 14 17 18 19 20 19 18 17 16 15 14
10 9 9 8 8 8 7 7 9 4 3 2 4 4 5 6 7 7 9 9 3 4 4 6 4 6 1 3 3 4 4 3 4 3 7 6 6 6 8 10 14 16 17 17 19 20 21 21 19 18 16 15 14 14
9 9 8 9 9 8 6 4 4 1 1 3 4 5 7 6 5 8 4 3 10 2 3 2 4 6 1 0 3 6 5 3 6 0 4 5 2 6 10 11 13 15 15 16 17 18 20 20 18 17 16 14 13 13
7 6 11 10 9 8 6 5 2 1 1 2 4 4 6 5 7 9 8 8 4 3 1 6 3 3 5 4 5 6 4 5 2 9 3 6 5 5 9 11 13 15 16 16 17 18 18 18 17 16 16 13 13 12
4 5 8 13 9 8 5 4 2 5 5 4 4 6 6 6 8 4 4 5 2 5 7 4 4 7 4 5 8 5 4 5 10 5 8 7 3 7 9 11 13 14 15 16 17 17 17 16 16 15 15 13 12 10
6 5 11 11 11 6 5 5 5 5 6 5 6 6 9 8 8 2 4 6 4 6 6 4 3 7 5 3 3 3 2 9 4 5 6 5 3 7 9 12 14 15 16 17 17 17 17 16 15 12 13 12 11 10
10 6 13 14 11 3 3 5 4 4 8 8 10 7 5 6 7 8 5 4 5 5 6 4 5 6 7 1 2 7 4 4 6 6 5 3 2 8 11 12 14 15 16 17 17 13 13 15 12 12 11 10 9 9
11 7 14 13 11 4 5 4 3 5 5 6 9 9 9 9 9 9 7 5 6 7 5 5 8 1 6 2 6 15 3 5 6 6 6 3 3 5 10 13 11 14 13 15 13 12 12 11 10 11 10 10 9 9
7 6 10 9 7 5 4 3 4 3 6 7 5 8 8 9 11 9 8 8 7 8 7 7 10 9 9 9 6 6 5 5 5 6 7 4 4 5 3 7 12 13 12 12 11 11 11 10 10 9 10 9 8 8
6 15 6 5 5 5 5 5 3 0 5 7 6 7 9 10 10 12 11 11 12 9 9 8 8 8 8 9 9 8 5 6 3 0 5 5 5 6 3 3 11 12 12 11 11 11 10 9 9 9 9 8 8 9
12 7 4 6 6 2 6 3 6 5 6 4 9 12 8 10 10 10 12 13 12 11 10 10 11 11 10 11 5 4 6 5 5 2 3 5 5 7 7 6 4 8 7 5 6 6 6 11 8 9 8 9 9 9
3 5 6 6 9 5 4 5 5 4 5 8 5 12 10 8 9 12 12 13 11 11 12 13 10 9 8 10 8 7 6 5 5 5 6 7 7 8 9 8 10 10 9 8 5 3 6 8 9 9 10 10 10 10
3 5 5 5 6 6 7 6 8 7 8 11 14 12 9 7 10 12 13 11 11 11 11 10 9 9 10 8 9 6 5 5 5 6 5 5 9 8 8 7 8 8 9 10 11 11 9 9 10 10 11 11 11 12
7 8 8 8 6 6 8 7 9 13 10 13 8 10 11 7 13 11 14 11 12 11 9 10 10 10 9 8 4 3 4 4 3 6 7 7 9 11 10 10 9 9 10 7 9 10 11 11 9 11 11 10 7 11
6 8 5 5 3 4 4 4 4 6 11 9 8 10 8 8 9 11 10 10 10 8 5 7 4 7 5 6 6 6 4 1 3 3 4 4 6 8 11 11 13 10 5 4 11 13 13 13 13 11 11 11 11 11
7 4 7 7 5 4 5 4 6 8 8 6 5 9 6 7 5 5 5 7 8 8 5 4 8 5 5 8 8 8 6 4 3 6 5 4 3 4 6 7 10 16 12 14 11 12 12 12 12 12 11 11 11 12
5 3 4 6 6 6 7 6 6 6 9 10 12 11 7 2 1 2 4 5 7 7 7 6 5 6 7 7 6 6 6 5 6 8 7 6 6 5 7 9 10 11 11 9 6 3 10 10 12 12 12 11 10 11
6 7 5 5 5 6 6 10 8 13 7 2 4 3 5 4 3 2 6 7 9 10 9 7 8 7 5 5 5 5 5 5 6 6 7 8 7 9 7 8 9 10 10 10 10 8 8 9 6 5 5 2 3 4
7 7 3 1 2 3 3 5 4 2 4 3 7 9 8 4 4 6 4 2 3 6 8 4 4 6 6 5 5 6 5 4 3 3 4 6 6 7 7 8 8 9 11 12 11 11 10 9 7 7 5 7 3 7
3 3 3 2 3 1 3 3 4 4 4 3 3 6 7 4 4 1 1 2 3 2 3 4 6 4 5 4 4 4 5 6 5 4 5 4 6 6 6 8 8 8 8 11 12 11 11 12 12 13 10 9 7 7
2 3 4 5 6 6 8 7 7 6 7 8 9 9 10 10 9 5 6 1 6 6 7 9 9 7 7 6 6 6 7 8 8 7 7 8 9 9 4 5 6 6 10 11 11 12 13 12 10 12 13 12 10 9
Wind_Direction
270 275 278 286 290 298 304 310 320 324 331 318 297 239 209 215 181 193 224 182 194 253 277 276 284 279 272 287 283 343 178 219 218 235 249 248 269 250 166 180 179 185 195 206 212 217 135 169 151 176 99 131 133 139
261 270 274 281 288 295 301 307 318 320 324 319 319 217 238 208 184 196 244 174 195 237 271 284 279 264 262 264 281 267 269 308 217 224 205 257 287 269 160 172 170 198 202 207 337 89 121 131 103 116 132 137 139 137
260 267 274 278 285 293 298 304 314 315 320 307 302 227 204 184 184 209 242 225 224 264 258 257 275 342 287 245 241 255 355 47 86 0 175 257 257 274 199 141 151 149 151 134 159 109 109 121 116 124 132 126 125 120
262 268 269 275 282 292 295 303 311 314 314 289 259 218 206 200 196 202 229 184 237 268 271 272 333 291 313 273 247 226 273 38 79 17 56 295 298 302 348 205 167 173 176 134 103 127 130 125 133 128 123 125 126 131
256 266 271 275 282 290 296 302 310 312 303 284 232 216 218 237 247 244 245 237 228 268 312 297 315 279 267 260 206 205 173 154 114 141 228 256 266 250 252 236 123 147 142 171 178 156 138 149 140 139 136 135 135 136
247 259 268 276 282 287 295 303 310 311 312 250 213 204 202 233 215 247 274 231 207 225 288 271 297 259 232 190 186 173 144 127 170 184 223 234 248 270 251 20 79 88 114 327 131 168 130 140 143 142 138 139 139 141
249 257 263 270 280 291 298 306 311 311 318 238 216 203 205 223 246 227 268 298 300 305 254 252 176 209 230 163 119 148 130 158 102 266 243 273 269 197 264 117 127 111 153 123 135 124 133 146 146 142 141 138 140 137
244 252 261 272 280 286 293 305 312 312 316 229 218 203 207 229 263 266 239 229 251 237 236 265 174 172 187 154 165 143 95 141 184 244 318 265 260 240 135 117 114 128 121 123 136 143 140 140 140 142 142 148 143 144
242 250 257 270 278 281 291 305 310 312 312 217 194 185 238 224 233 156 160 172 244 276 290 272 279 149 177 203 124 167 231 245 185 204 177 267 267 289 133 138 145 138 137 142 120 135 140 145 145 148 152 157 155 152
239 247 251 265 275 283 290 302 309 313 282 170 167 198 239 201 258 192 168 236 212 212 221 261 275 192 218 187 174 175 211 229 224 221 138 224 210 222 44 129 137 155 141 144 139 145 150 149 152 157 163 160 156 157
231 239 247 260 272 284 290 302 311 306 196 214 183 229 265 134 202 174 221 235 183 238 217 235 250 269 33 252 221 215 266 254 259 132 246 180 175 197 188 168 142 193 168 164 165 150 152 152 158 161 160 156 152 155
225 233 243 262 272 276 285 299 306 281 241 314 290 255 269 228 185 208 228 225 203 217 238 240 248 237 200 181 184 267 260 221 254 323 236 264 150 155 166 185 165 174 170 165 154 157 155 155 161 157 153 148 152 151
225 233 241 259 272 271 278 291 286 283 295 270 254 235 248 200 222 227 204 206 203 195 178 220 222 236 193 236 226 227 260 259 332 234 232 230 94 136 166 164 158 172 173 165 152 156 154 156 154 154 147 148 147 151
225 235 240 258 268 265 266 286 300 257 233 202 179 226 244 203 220 216 250 0 338 209 199 221 225 207 92 212 149 256 270 227 257 214 223 101 118 160 180 168 167 166 169 164 158 158 156 157 153 149 148 147 152 151
221 232 244 258 249 242 252 272 323 254 215 202 219 216 232 268 303 301 309 199 229 231 286 229 240 234 137 22 276 232 231 205 223 139 68 73 98 160 174 169 165 163 168 159 157 156 158 152 152 150 148 151 155 154
218 251 233 243 199 208 233 212 234 171 234 245 243 246 244 278 252 242 247 261 255 172 185 259 249 271 189 187 230 244 201 216 5 159 121 77 89 155 165 169 166 167 161 158 157 158 155 155 152 151 148 153 155 161
221 253 153 171 173 188 225 234 187 215 203 210 242 242 250 273 271 261 279 312 320 216 218 219 220 222 195 211 192 231 266 91 213 92 70 47 121 155 167 172 164 157 156 158 156 155 152 149 148 152 154 152 152 159
237 193 151 159 176 174 197 221 207 205 231 223 242 223 207 237 271 231 287 308 268 245 252 253 318 233 204 245 259 327 256 164 199 42 60 56 128 169 179 172 164 160 156 156 154 154 154 152 153 156 148 152 152 152
247 227 164 174 203 118 234 223 236 251 227 232 212 239 239 249 244 268 250 236 263 292 284 228 238 227 240 264 28 267 175 250 46 52 62 41 157 184 177 176 164 159 159 158 158 160 154 161 162 150 155 161 161 161
222 224 168 185 213 194 197 223 261 261 261 237 237 243 231 233 223 214 239 246 227 238 239 246 258 39 325 186 152 227 8 19 347 345 115 85 160 199 182 171 167 159 159 155 163 158 155 170 158 160 161 177 162 162
170 169 154 184 200 251 274 205 225 229 301 277 248 236 240 239 242 244 230 194 212 229 246 240 263 267 254 274 328 357 332 354 350 331 349 132 173 158 188 181 166 162 160 160 165 160 170 161 154 159 158 170 166 162
125 172 151 178 239 225 242 215 253 30 242 233 225 257 241 226 231 233 230 234 239 232 229 254 266 261 263 258 269 267 289 309 340 153 170 106 139 120 121 213 172 163 168 165 165 159 170 150 154 151 167 164 165 172
160 173 189 187 221 204 256 223 216 208 237 233 223 221 220 232 234 232 230 235 235 231 240 250 255 261 279 287 301 280 261 268 271 136 136 127 152 144 144 144 139 124 125 95 115 182 129 130 145 158 162 164 177 155
347 195 206 207 194 213 234 219 216 238 248 240 238 235 233 226 213 218 231 225 226 223 225 231 247 244 231 234 258 246 216 212 256 122 167 140 138 156 166 167 156 160 151 151 127 11 163 168 155 167 164 179 171 163
178 213 228 220 214 211 209 201 219 228 226 229 235 247 247 231 233 235 227 229 219 220 225 211 216 226 243 222 223 202 83 258 218 152 167 156 136 150 163 160 172 177 158 159 146 167 170 165 182 169 173 178 178 169
226 198 203 197 186 209 206 223 208 212 232 242 247 235 235 268 231 236 224 229 220 204 221 212 202 206 213 246 219 151 174 231 234 171 169 164 156 160 164 171 170 164 180 160 142 154 172 161 176 175 181 172 176 182
237 223 198 215 204 206 253 270 269 252 231 212 221 209 227 216 239 221 229 195 212 180 211 197 190 192 198 143 113 115 135 155 73 99 137 162 183 178 166 172 173 160 131 131 179 181 180 178 179 189 183 175 182 206
238 258 216 176 200 194 204 195 192 223 227 227 183 205 218 215 224 163 181 168 204 149 131 154 173 170 151 154 156 164 157 144 146 113 111 128 177 189 151 155 150 150 164 203 205 184 182 181 185 184 188 192 189 197
226 204 197 207 196 199 209 210 216 239 236 202 209 209 204 272 17 160 124 153 133 163 139 148 148 138 137 146 154 142 162 185 149 143 165 153 159 170 184 161 142 160 189 190 41 164 177 185 187 186 195 204 199 188
212 173 214 193 211 218 209 193 217 207 180 228 270 175 154 109 85 138 149 157 171 177 168 161 164 134 133 131 133 141 169 184 207 206 210 180 176 144 172 151 171 178 181 175 155 131 115 130 148 145 153 188 237 225
145 182 239 224 235 256 260 293 297 56 120 138 163 145 122 106 58 17 65 89 147 134 146 138 88 97 126 151 157 169 155 138 95 22 18 96 115 151 163 164 182 164 166 174 168 177 163 161 146 132 144 145 191 265
343 105 120 117 126 135 51 24 34 6 358 51 62 103 100 67 57 294 269 274 278 183 162 139 111 152 161 177 162 81 75 121 146 140 157 126 110 145 176 184 179 145 148 173 168 173 181 190 202 214 213 197 152 132
331 8 27 101 125 140 173 166 170 176 210 174 160 183 177 135 106 124 140 206 165 162 153 139 135 146 140 122 123 116 93 77 74 52 41 38 31 9 278 142 129 162 173 184 190 189 187 173 162 167 170 167 165 170